THOR ABLESTAR DEB

Satellite information

Favourite Embed

Satellite Type and Status

DEBRISIN ORBIT

Key statistics

Satellite THOR ABLESTAR DEB at a glance.

Uptime

23439

Days in orbit

Revolutions

≈ 14.4

Per day

Orbit

LEO

Low Earth Orbit

Inclination

66.5

Latest

Satellite identification and parameters

Extended collection of information and parameters for THOR ABLESTAR DEB.

Object identification

Identified? True

Debris? True

Object name: THOR ABLESTAR DEB

International designator: 1961-015CL

Object number (NORAD): 264

Object ID (CCSDS): 264

Country: UNITED STATES OF AMERICA (US)

Current information (Y/N): Y

RCS size: MEDIUM

Orbital parameters

Period: 100.19 minutes

Inclination: 66.5245 deg

SMA: 7145.68 km

Apoapsis: 790.157 km

Periapsis: 744.932 km

RAAN: 287.6003 deg

Eccentricy: 0.00316447

Argument of periapsis: 239.7399 deg

Mean anomaly: 120.0568 deg

Mean motion: 14.37267026 rev/day

Mean motion (dot): 0.00003077 rev/day2

B* drag term: 0.0010539547 1/REarth

Two-line elements (TLE)

Creation date: Aug. 31, 2025, 2:26 a.m.

Reference frame: TEME

Reference center: EARTH

Epoch: Aug. 30, 2025, 8:38 p.m. UTC

TLE line 0: 0 THOR ABLESTAR DEB

TLE line 1: 1 00264U 61015CL 25242.85984615 .00003077 00000-0 10540-2 0 9995

TLE line 2: 2 00264 66.5245 287.6003 0031645 239.7399 120.0568 14.37267026291900

Live tracking on map

Real-time ground track for satellite THOR ABLESTAR DEB.

In-orbit conjunctions

A list of the most updated potential collisions computed for object THOR ABLESTAR DEB.

Target Orbit TCA Probability of collision Miss distance Type
SL-12 DEB LEO 2025-08-31 13:13:39 0.000191425 272.0 (m) DEBRIS
FALCONSAT SSO 2024-11-21 21:23:54 0.0002101244 502.0 (m) PAYLOAD
ARIANE 40 R/B SSO 2024-09-26 21:59:34 0.001085557 594.0 (m) ROCKET BODY

Associated space launch

THOR ABLESTAR DEB was lifted into orbit during the mission ‘Thor DM-21 Ablestar | Transit 4A & Injun-1 & Solrad 3’, on board a Thor DM-21 Ablestar space rocket.

The launch took place on June 29, 1961, 4:23 a.m. from Space Launch Complex 17B.

For more information about the launch, click the button.

Launch to space Thor DM-21 Ablestar | Transit 4A & Injun-1 & Solrad 3
Thor DM-21 Ablestar | Transit 4A & Injun-1 & Solrad 3

Agency: N/A

Status: Launch Successful

Launch date: June 29, 1961, 4:23 a.m. UTC

Rocket: Thor DM-21 Ablestar

Launch pad: Space Launch Complex 17B

Location: Cape Canaveral SFS, FL, USA

...

Latest news about this satellite

There are no fresh news available about this satellite. Check back as we update our databases every day.


Newsletter sign-up

Weekly statistics, charts and insights to help you stay on top of the space industry.